TimeEST,TemperatureF,Dew PointF,Humidity,Sea Level PressureIn,VisibilityMPH,Wind Direction,Wind SpeedMPH,Gust SpeedMPH,PrecipitationIn,Events,Conditions,WindDirDegrees,DateUTC
12:09 AM,37.4,35.6,93,30.02,3.0,Calm,Calm,-,0.00,Rain,Light Rain,0,2012-12-08 05:09:00
12:39 AM,37.4,35.6,93,30.02,2.0,Calm,Calm,-,0.00,,Overcast,0,2012-12-08 05:39:00
12:51 AM,37.0,35.1,93,30.01,3.0,Calm,Calm,-,0.00,,Overcast,0,2012-12-08 05:51:00
1:03 AM,37.4,35.6,93,30.01,2.0,Calm,Calm,-,0.00,Rain,Light Rain,0,2012-12-08 06:03:00
1:30 AM,35.6,35.6,100,30.01,3.0,Calm,Calm,-,0.00,,Overcast,0,2012-12-08 06:30:00
1:46 AM,37.4,35.6,93,30.01,2.5,Calm,Calm,-,0.00,,Mostly Cloudy,0,2012-12-08 06:46:00
1:51 AM,36.0,35.1,97,30.01,2.5,Calm,Calm,-,0.00,,Mostly Cloudy,0,2012-12-08 06:51:00
2:07 AM,37.4,35.6,93,30.01,4.0,Calm,Calm,-,N/A,,Mostly Cloudy,0,2012-12-08 07:07:00
2:20 AM,35.6,33.8,93,30.00,1.5,Calm,Calm,-,N/A,,Mostly Cloudy,0,2012-12-08 07:20:00
2:31 AM,35.6,35.6,100,30.01,0.8,Calm,Calm,-,N/A,,Mostly Cloudy,0,2012-12-08 07:31:00
2:47 AM,35.6,33.8,93,30.01,0.5,Calm,Calm,-,N/A,Fog,Fog,0,2012-12-08 07:47:00
2:51 AM,35.1,34.0,96,30.01,0.5,Calm,Calm,-,N/A,Fog,Fog,0,2012-12-08 07:51:00
3:27 AM,35.6,33.8,93,30.00,2.0,Calm,Calm,-,N/A,,Mostly Cloudy,0,2012-12-08 08:27:00
3:38 AM,35.6,33.8,93,29.99,3.0,Calm,Calm,-,N/A,,Mostly Cloudy,0,2012-12-08 08:38:00
3:51 AM,36.0,34.0,93,29.99,4.0,Calm,Calm,-,N/A,,Partly Cloudy,0,2012-12-08 08:51:00
3:58 AM,33.8,33.8,100,29.99,1.5,Calm,Calm,-,N/A,,Scattered Clouds,0,2012-12-08 08:58:00
4:07 AM,33.8,32.0,93,29.99,0.8,Calm,Calm,-,N/A,,Mostly Cloudy,0,2012-12-08 09:07:00
4:14 AM,35.6,33.8,93,29.99,2.0,Calm,Calm,-,N/A,,Mostly Cloudy,0,2012-12-08 09:14:00
4:51 AM,34.0,34.0,100,30.00,2.0,Calm,Calm,-,N/A,,Overcast,0,2012-12-08 09:51:00
4:59 AM,35.6,33.8,93,30.00,1.8,Calm,Calm,-,N/A,,Overcast,0,2012-12-08 09:59:00
5:10 AM,35.6,33.8,93,30.00,2.0,Calm,Calm,-,0.00,Rain,Light Rain,0,2012-12-08 10:10:00
5:41 AM,33.8,33.8,100,30.00,1.5,Calm,Calm,-,0.01,Rain,Light Rain,0,2012-12-08 10:41:00
5:51 AM,35.1,33.1,92,30.01,1.8,Calm,Calm,-,0.01,Rain,Light Rain,0,2012-12-08 10:51:00
6:10 AM,35.6,33.8,93,30.00,2.0,North,3.5,-,0.02,Rain,Light Rain,350,2012-12-08 11:10:00
6:51 AM,36.0,34.0,93,30.00,2.5,Calm,Calm,-,0.07,Rain,Rain,0,2012-12-08 11:51:00
7:21 AM,35.6,33.8,93,29.99,3.0,North,3.5,-,0.04,Rain,Light Rain,10,2012-12-08 12:21:00
7:34 AM,35.6,33.8,93,29.99,2.5,Calm,Calm,-,0.05,Rain,Light Rain,0,2012-12-08 12:34:00
7:42 AM,35.6,33.8,93,29.99,3.0,NNE,3.5,-,0.05,Rain,Light Rain,30,2012-12-08 12:42:00
7:49 AM,35.6,33.8,93,29.99,2.0,Calm,Calm,-,0.05,Rain,Light Rain,0,2012-12-08 12:49:00
7:51 AM,35.1,34.0,96,29.99,2.0,Calm,Calm,-,0.05,Rain,Light Rain,0,2012-12-08 12:51:00
8:08 AM,35.6,33.8,93,29.98,4.0,North,4.6,-,0.00,,Overcast,10,2012-12-08 13:08:00
8:29 AM,35.6,33.8,93,29.98,4.0,NNE,3.5,-,0.00,Rain,Light Rain,20,2012-12-08 13:29:00
8:51 AM,36.0,35.1,97,29.98,3.0,NNE,3.5,-,0.00,,Overcast,30,2012-12-08 13:51:00
9:02 AM,35.6,35.6,100,29.97,3.0,NE,4.6,-,0.00,,Overcast,40,2012-12-08 14:02:00
9:51 AM,37.0,35.1,93,29.97,4.0,NNE,8.1,-,0.00,,Overcast,30,2012-12-08 14:51:00
9:58 AM,37.4,33.8,87,29.97,1.8,NNE,5.8,-,0.00,Rain,Light Rain,20,2012-12-08 14:58:00
10:51 AM,37.0,35.1,93,29.93,1.2,East,6.9,-,0.05,Rain,Rain,80,2012-12-08 15:51:00
11:07 AM,37.4,35.6,93,29.94,3.0,NNW,6.9,-,0.01,Rain,Light Rain,340,2012-12-08 16:07:00
11:20 AM,37.4,35.6,93,29.93,2.5,North,5.8,-,0.02,Rain,Light Rain,350,2012-12-08 16:20:00
11:42 AM,37.4,35.6,93,29.91,3.0,North,5.8,-,0.02,Rain,Light Rain,10,2012-12-08 16:42:00
11:49 AM,37.4,35.6,93,29.91,2.5,North,6.9,-,0.02,Rain,Light Rain,360,2012-12-08 16:49:00
11:51 AM,37.0,35.1,93,29.91,2.0,North,6.9,-,0.02,Rain,Light Rain,360,2012-12-08 16:51:00
12:00 PM,37.4,35.6,93,29.91,1.5,North,8.1,-,0.01,Rain,Light Rain,10,2012-12-08 17:00:00
12:09 PM,37.4,35.6,93,29.90,3.0,North,5.8,-,0.01,Rain,Light Rain,350,2012-12-08 17:09:00
12:51 PM,37.9,35.1,89,29.88,5.0,North,9.2,-,0.01,,Overcast,360,2012-12-08 17:51:00
1:51 PM,37.9,36.0,93,29.85,4.0,North,6.9,-,N/A,,Overcast,350,2012-12-08 18:51:00
2:14 PM,37.4,35.6,93,29.86,2.5,NNW,8.1,-,N/A,,Overcast,340,2012-12-08 19:14:00
2:20 PM,37.4,35.6,93,29.85,3.0,North,5.8,-,N/A,,Overcast,360,2012-12-08 19:20:00
2:31 PM,37.4,35.6,93,29.85,3.0,North,4.6,-,N/A,,Overcast,350,2012-12-08 19:31:00
2:42 PM,37.4,35.6,93,29.85,2.5,North,3.5,-,N/A,,Overcast,360,2012-12-08 19:42:00
2:49 PM,37.4,37.4,100,29.86,2.0,North,4.6,-,N/A,,Overcast,360,2012-12-08 19:49:00
2:51 PM,37.9,37.0,97,29.86,2.0,North,5.8,-,N/A,,Overcast,360,2012-12-08 19:51:00
3:08 PM,37.4,35.6,93,29.86,1.5,Calm,Calm,-,N/A,,Overcast,0,2012-12-08 20:08:00
3:32 PM,37.4,35.6,93,29.86,2.5,North,3.5,-,N/A,,Overcast,360,2012-12-08 20:32:00
3:47 PM,37.4,35.6,93,29.87,4.0,NW,3.5,-,N/A,,Overcast,320,2012-12-08 20:47:00
3:51 PM,37.0,36.0,96,29.87,4.0,NW,3.5,-,N/A,,Overcast,320,2012-12-08 20:51:00
4:04 PM,37.4,35.6,93,29.87,5.0,WNW,3.5,-,N/A,,Overcast,300,2012-12-08 21:04:00
4:20 PM,37.4,35.6,93,29.87,3.0,NW,5.8,-,N/A,,Overcast,310,2012-12-08 21:20:00
4:39 PM,37.4,35.6,93,29.87,5.0,NNW,3.5,-,N/A,,Overcast,330,2012-12-08 21:39:00
4:51 PM,37.0,35.1,93,29.88,4.0,NNW,3.5,-,N/A,,Overcast,340,2012-12-08 21:51:00
5:26 PM,37.4,35.6,93,29.87,2.5,Calm,Calm,-,N/A,,Overcast,0,2012-12-08 22:26:00
5:48 PM,37.4,35.6,93,29.88,3.0,NW,4.6,-,N/A,,Overcast,310,2012-12-08 22:48:00
5:51 PM,37.0,36.0,96,29.88,3.0,NW,3.5,-,N/A,,Overcast,310,2012-12-08 22:51:00
6:15 PM,37.4,35.6,93,29.87,2.5,Calm,Calm,-,N/A,,Overcast,0,2012-12-08 23:15:00
6:35 PM,37.4,35.6,93,29.86,1.8,Calm,Calm,-,N/A,,Overcast,0,2012-12-08 23:35:00
6:51 PM,37.0,36.0,96,29.88,3.0,Calm,Calm,-,N/A,,Overcast,0,2012-12-08 23:51:00
7:18 PM,37.4,35.6,93,29.88,4.0,Calm,Calm,-,N/A,,Overcast,0,2012-12-09 00:18:00
7:37 PM,37.4,35.6,93,29.88,2.0,Calm,Calm,-,N/A,,Overcast,0,2012-12-09 00:37:00
7:44 PM,37.4,35.6,93,29.88,1.2,Calm,Calm,-,N/A,,Overcast,0,2012-12-09 00:44:00
7:51 PM,37.9,36.0,93,29.88,1.2,Calm,Calm,-,N/A,,Overcast,0,2012-12-09 00:51:00
8:06 PM,37.4,35.6,93,29.89,3.0,Calm,Calm,-,N/A,,Overcast,0,2012-12-09 01:06:00
8:15 PM,37.4,37.4,100,29.89,5.0,Calm,Calm,-,N/A,,Overcast,0,2012-12-09 01:15:00
8:34 PM,37.4,37.4,100,29.88,2.0,Calm,Calm,-,N/A,,Overcast,0,2012-12-09 01:34:00
8:48 PM,37.4,37.4,100,29.88,3.0,Calm,Calm,-,N/A,,Overcast,0,2012-12-09 01:48:00
8:51 PM,37.9,37.0,97,29.88,3.0,Calm,Calm,-,N/A,,Overcast,0,2012-12-09 01:51:00
9:08 PM,37.4,37.4,100,29.88,1.8,Calm,Calm,-,N/A,,Overcast,0,2012-12-09 02:08:00
9:51 PM,37.9,37.0,97,29.88,1.5,Calm,Calm,-,N/A,,Overcast,0,2012-12-09 02:51:00
10:05 PM,37.4,37.4,100,29.88,2.0,Calm,Calm,-,N/A,,Overcast,0,2012-12-09 03:05:00
10:51 PM,39.0,37.0,93,29.89,2.5,Calm,Calm,-,N/A,,Overcast,0,2012-12-09 03:51:00
11:36 PM,39.2,37.4,93,29.90,3.0,Variable,3.5,-,N/A,,Overcast,0,2012-12-09 04:36:00
11:49 PM,39.2,37.4,93,29.90,2.0,WSW,4.6,-,N/A,,Overcast,240,2012-12-09 04:49:00
11:51 PM,39.0,37.9,96,29.90,2.0,SSW,4.6,-,N/A,,Overcast,210,2012-12-09 04:51:00